Location: Karcze
(52.0945°N, 22.4786°E)
Time: 03:01:15
(UTC+00:00)

Transit 2A Rocket - Pass Details

Date: 30 July 2021
Orbit: 586 x 917 km, 66.7° (Epoch: 27 September)

Event Time Altitude Azimuth Distance (km) Brightness Sun altitude
Rises 13:34:42 0° 215° (SW) 2,857 8.7 41.6°
Reaches altitude 10° 13:36:52 10° 215° (SW) 1,986 8.1 41.3°
Maximum altitude 13:41:20 86° 127° (SE) 664 5.4 40.7°
Drops below altitude 10° 13:46:15 10° 40° (NE) 2,176 7.0 40.0°
Sets 13:48:43 0° 40° (NE) 3,155 7.8 39.7°
